Mount Airy, NC

4:49 PM EDT on October 15, 2019 (GMT -0400)
Mount Airy-Surry County

Weather History for KMWK - September, 2019

Change the Weather History Date:

Sunday, September 22, 2019

  Actual Average (KINT) Record (KINT)
Temperature  
Mean Temperature 75 °F -  
Max Temperature 89 °F 74 °F 90 °F (1970)
Min Temperature 61 °F 57 °F 40 °F (1983)
Cooling Degree Days 10    
Growing Degree Days 25 (Base 50)    
Moisture  
Dew Point 62 °F    
Average Humidity 68    
Maximum Humidity 92    
Minimum Humidity 36    
Precipitation  
Precipitation 0.00 in - - ()
Sea Level Pressure  
Sea Level Pressure 30.21 in    
Wind  
Wind Speed 1 mph ()    
Max Wind Speed 7 mph    
Max Gust Speed -    
Visibility 10.0 miles    
Events      
Averages and records for this station are not official NWS values.
T = Trace of Precipitation, MM = Missing Value Source: Averaged Metar Reports

Daily Weather History Graph

Daily Weather History Graph

Search for Another Location

Airport or City:

Astronomy

Sep. 22, 2019 Rise Set
Actual Time 7:09 AM EDT 7:19 PM EDT
Civil Twilight 6:44 AM EDT 7:45 PM EDT
Nautical Twilight 6:14 AM EDT 8:15 PM EDT
Astronomical Twilight 5:43 AM EDT 8:45 PM EDT
Moon 12:08 AM EDT (9/22) 3:02 PM EDT (9/22)
Length of Visible Light 13h 00m
Length of Day
12h 09m
Last Quarter, 44% of the Moon is Illuminated
Sep 22
Last Quarter
Sep 28
New
Oct 5
First Quarter
Oct 13
Full
Oct 21
Last Quarter

Hourly Weather History & Observations

Time (EDT) Temp. Heat Index Dew Point Humidity Pressure Visibility Wind Dir Wind Speed Gust Speed Precip Events Conditions
12:15 AM 67.3 °F - 63.7 °F 88% 30.28 in 10.0 mi Calm Calm - N/A   Clear
12:35 AM 66.7 °F - 63.1 °F 88% 30.27 in 10.0 mi Calm Calm - N/A   Scattered Clouds
1:15 AM 65.8 °F - 62.6 °F 89% 30.27 in 10.0 mi Calm Calm - N/A   Clear
1:35 AM 65.5 °F - 62.6 °F 90% 30.26 in 10.0 mi Calm Calm - N/A   Clear
1:55 AM 65.7 °F - 62.6 °F 90% 30.26 in 10.0 mi Calm Calm - N/A   Clear
2:15 AM 65.3 °F - 62.4 °F 90% 30.26 in 10.0 mi Calm Calm - N/A   Clear
2:35 AM 65.5 °F - 62.6 °F 90% 30.25 in 10.0 mi Calm Calm - N/A   Clear
2:55 AM 65.5 °F - 62.4 °F 90% 30.25 in 10.0 mi Calm Calm - N/A   Clear
3:15 AM 64.6 °F - 61.7 °F 90% 30.25 in 10.0 mi Calm Calm - N/A   Clear
3:35 AM 64.8 °F - 62.1 °F 91% 30.24 in 10.0 mi Calm Calm - N/A   Clear
3:55 AM 64.4 °F - 61.7 °F 91% 30.24 in 10.0 mi Calm Calm - N/A   Clear
4:15 AM 63.9 °F - 61.2 °F 91% 30.23 in 10.0 mi Calm Calm - N/A   Clear
4:35 AM 63.5 °F - 61.2 °F 92% 30.23 in 10.0 mi Calm Calm - N/A   Clear
4:55 AM 63.7 °F - 61.2 °F 91% 30.23 in 10.0 mi Calm Calm - N/A   Clear
5:15 AM 63.1 °F - 60.8 °F 92% 30.23 in 10.0 mi Calm Calm - N/A   Clear
5:35 AM 62.8 °F - 60.4 °F 92% 30.24 in 10.0 mi Calm Calm - N/A   Clear
5:55 AM 63.0 °F - 60.6 °F 92% 30.24 in 10.0 mi Calm Calm - N/A   Clear
6:15 AM 62.2 °F - 59.9 °F 92% 30.24 in 10.0 mi Calm Calm - N/A   Clear
6:35 AM 61.7 °F - 59.2 °F 91% 30.25 in 10.0 mi Calm Calm - N/A   Clear
6:55 AM 62.6 °F - 60.3 °F 92% 30.25 in 10.0 mi Calm Calm - N/A   Clear
7:15 AM 62.2 °F - 59.9 °F 92% 30.25 in 10.0 mi Calm Calm - N/A   Clear
7:35 AM 63.1 °F - 60.8 °F 92% 30.25 in 10.0 mi Calm Calm - N/A   Scattered Clouds
7:55 AM 63.5 °F - 61.2 °F 92% 30.26 in 7.0 mi Calm Calm - N/A   Clear
8:15 AM 64.9 °F - 62.6 °F 92% 30.26 in 10.0 mi Calm Calm - N/A   Clear
8:35 AM 66.4 °F - 63.7 °F 91% 30.26 in 10.0 mi Calm Calm - N/A   Clear
8:55 AM 68.4 °F - 65.1 °F 89% 30.26 in 10.0 mi Calm Calm - N/A   Clear
9:15 AM 70.7 °F - 65.8 °F 85% 30.26 in 10.0 mi Calm Calm - N/A   Clear
9:35 AM 71.1 °F - 66.2 °F 85% 30.27 in 10.0 mi Calm Calm - N/A   Clear
9:55 AM 73.2 °F - 66.7 °F 80% 30.27 in 10.0 mi Calm Calm - N/A   Clear
10:15 AM 75.2 °F - 66.2 °F 73% 30.26 in 10.0 mi Calm Calm - N/A   Clear
10:35 AM 77.5 °F - 66.9 °F 70% 30.25 in 10.0 mi Calm Calm - N/A   Clear
10:55 AM 79.9 °F - 66.0 °F 62% 30.25 in 10.0 mi West 3.5 mph - N/A   Clear
11:15 AM 81.3 °F 83.3 °F 65.7 °F 59% 30.25 in 10.0 mi Calm Calm - N/A   Clear
11:35 AM 82.6 °F 84.5 °F 65.3 °F 56% 30.25 in 10.0 mi Calm Calm - N/A   Clear
11:55 AM 84.2 °F 86.1 °F 65.3 °F 53% 30.24 in 10.0 mi West 3.5 mph - N/A   Clear
12:15 PM 84.9 °F 87.6 °F 66.9 °F 55% 30.23 in 10.0 mi Calm Calm - N/A   Clear
12:35 PM 86.0 °F 87.9 °F 65.5 °F 50% 30.22 in 10.0 mi NNE 4.6 mph - N/A   Clear
12:55 PM 86.5 °F 86.3 °F 60.4 °F 41% 30.21 in 10.0 mi WSW 6.9 mph - N/A   Clear
1:15 PM 86.9 °F 87.5 °F 62.4 °F 44% 30.20 in 10.0 mi SSW 6.9 mph - N/A   Clear
1:35 PM 88.0 °F 88.1 °F 61.3 °F 41% 30.19 in 10.0 mi SSE 4.6 mph - N/A   Clear
1:55 PM 87.8 °F 87.1 °F 59.4 °F 38% 30.18 in 10.0 mi SSW 5.8 mph - N/A   Clear
2:15 PM 88.2 °F 87.6 °F 59.4 °F 38% 30.18 in 10.0 mi SSW 4.6 mph - N/A   Clear
2:35 PM 88.0 °F 87.1 °F 59.0 °F 37% 30.17 in 10.0 mi West 5.8 mph - N/A   Clear
2:55 PM 88.9 °F 88.0 °F 58.8 °F 36% 30.17 in 10.0 mi Calm Calm - N/A   Clear
3:15 PM 88.3 °F 87.6 °F 59.4 °F 37% 30.16 in 10.0 mi WSW 3.5 mph - N/A   Clear
3:35 PM 86.5 °F 86.5 °F 61.0 °F 42% 30.16 in 10.0 mi SSW 3.5 mph - N/A   Scattered Clouds
3:55 PM 88.7 °F 88.0 °F 59.5 °F 37% 30.15 in 10.0 mi WSW 5.8 mph - N/A   Scattered Clouds
4:15 PM 89.2 °F 88.7 °F 59.7 °F 37% 30.15 in 10.0 mi SSW 4.6 mph - N/A   Clear
4:35 PM 88.2 °F 87.6 °F 59.9 °F 38% 30.15 in 10.0 mi SSW 4.6 mph - N/A   Scattered Clouds
4:55 PM 88.0 °F 87.4 °F 59.7 °F 38% 30.15 in 10.0 mi WSW 4.6 mph - N/A   Scattered Clouds
5:15 PM 88.2 °F 87.6 °F 59.4 °F 38% 30.14 in 10.0 mi SSW 4.6 mph - N/A   Clear
5:35 PM 87.4 °F 86.9 °F 59.5 °F 39% 30.14 in 10.0 mi SSW 5.8 mph - N/A   Clear
5:55 PM 86.9 °F 86.5 °F 59.9 °F 40% 30.14 in 10.0 mi SW 3.5 mph - N/A   Clear
6:15 PM 86.0 °F 86.1 °F 61.0 °F 43% 30.14 in 10.0 mi Calm Calm - N/A   Clear
6:35 PM 84.9 °F 85.2 °F 61.7 °F 45% 30.14 in 10.0 mi Calm Calm - N/A   Clear
6:55 PM 83.8 °F 84.3 °F 61.7 °F 47% 30.14 in 10.0 mi Calm Calm - N/A   Clear
7:15 PM 82.6 °F 83.4 °F 62.2 °F 50% 30.14 in 10.0 mi Calm Calm - N/A   Clear
7:35 PM 81.3 °F 82.5 °F 62.6 °F 53% 30.14 in 10.0 mi Calm Calm - N/A   Clear
7:55 PM 80.1 °F 81.5 °F 63.0 °F 56% 30.14 in 10.0 mi Calm Calm - N/A   Clear
8:15 PM 78.8 °F - 63.1 °F 59% 30.15 in 10.0 mi Calm Calm - N/A   Clear
8:35 PM 78.3 °F - 63.5 °F 60% 30.15 in 10.0 mi Calm Calm - N/A   Clear
8:55 PM 77.2 °F - 64.0 °F 64% 30.15 in 10.0 mi Calm Calm - N/A   Clear
9:15 PM 76.3 °F - 63.7 °F 65% 30.15 in 10.0 mi Calm Calm - N/A   Clear
9:35 PM 74.8 °F - 63.9 °F 69% 30.16 in 10.0 mi Calm Calm - N/A   Clear
9:55 PM 75.0 °F - 63.7 °F 68% 30.16 in 10.0 mi Calm Calm - N/A   Clear
10:15 PM 73.2 °F - 63.9 °F 72% 30.16 in 10.0 mi Calm Calm - N/A   Clear
10:35 PM 72.5 °F - 64.4 °F 76% 30.16 in 10.0 mi Calm Calm - N/A   Clear
10:55 PM 70.7 °F - 64.2 °F 80% 30.16 in 10.0 mi Calm Calm - N/A   Clear
11:15 PM 72.1 °F - 64.2 °F 76% 30.16 in 10.0 mi Calm Calm - N/A   Clear
11:35 PM 70.9 °F - 63.5 °F 77% 30.16 in 10.0 mi Calm Calm - N/A   Clear
11:55 PM 69.8 °F - 63.5 °F 80% 30.16 in 10.0 mi Calm Calm - N/A   Clear